Flag for United Kingdom Weather past 2 weeks in Glasgow, Scotland, United Kingdom

Now
57 °F

Light rain. Broken clouds.


Feels Like: 54 °F
Forecast: 52 / 58 °F
Wind: 16 mph from South

Location: Glasgow Airport

Current Time: Aug 4, 2015 at 9:05:33 AM

Latest Report: Aug 4, 2015 at 8:20 AM


Visibility: N/A

Pressure: 29.45 "Hg

Humidity: 94%

Dew point: 55 °F

Location of GlasgowLocation

Historic Weather in Glasgow — Graph

°F

Glasgow temperature yesterday

Maximum temperature yesterday: 66 °F (at 5:20 PM)
Minimum temperature yesterday: 57 °F (at 12:20 AM)
Average temperature yesterday: 60 °F

Past Weeks' High & Low Weather Summary

 TemperatureHumidityPressure
High66 °F (Aug 3, 5:20 PM)100% (Jul 20, 6:20 PM)30.09 "Hg (Jul 20, 6:20 PM)
Low41 °F (Jul 30, 5:20 AM)49% (Jul 30, 5:20 PM)29.42 "Hg (Jul 26, 10:50 PM)
Average55 °F82%29.79 "Hg
* Reported Jul 20 7:20 AM — Aug 4 7:50 AM, Glasgow, Weather by CustomWeather, © 2015

Note: Actual official high and low records may vary slightly from our data, if they occured in-between our weather recording intervals... More about our weather records

Advertising

Glasgow weather history for previous 24 hours

 ConditionsComfort  
Time TempWeatherWind HumidityBarometerVisibility
7:50 AM
Tue, Aug 4
57 °FLight rain. Broken clouds.17 mph88%29.45 "Hg6 mi
7:20 AM57 °FLight rain. Broken clouds.15 mph88%29.45 "HgN/A
6:50 AM57 °FLight rain. Broken clouds.15 mph88%29.45 "HgN/A
6:20 AM55 °FLight rain. Overcast.15 mph94%29.45 "HgN/A
5:50 AM55 °FLight rain. Partly cloudy.13 mph94%29.45 "Hg5 mi
5:20 AM55 °FLight rain. Passing clouds.13 mph88%29.45 "Hg6 mi
4:50 AM55 °FRain. Passing clouds.14 mph88%29.45 "Hg4 mi
4:20 AM55 °FLight rain. Passing clouds.10 mph88%29.47 "HgN/A
3:50 AM55 °FRain. Passing clouds.12 mph88%29.47 "Hg6 mi
3:20 AM55 °FLight rain. Passing clouds.8 mph88%29.50 "HgN/A
2:50 AM57 °FLight rain. Passing clouds.12 mph77%29.50 "HgN/A
2:20 AM57 °FLight rain. Passing clouds.10 mph72%29.50 "HgN/A
1:50 AM57 °FLight rain. Passing clouds.8 mph72%29.53 "HgN/A
1:20 AM57 °FClear.9 mph72%29.53 "Hg10 mi
12:50 AM55 °FPassing clouds.9 mph77%29.56 "HgN/A
12:20 AM55 °FPassing clouds.10 mph77%29.56 "HgN/A
11:50 PM
Mon, Aug 3
57 °FPassing clouds.8 mph72%29.56 "HgN/A
11:20 PM57 °FPassing clouds.10 mph72%29.59 "HgN/A
10:50 PM57 °FPassing clouds.10 mph77%29.59 "HgN/A
10:20 PM57 °FPassing clouds.13 mph72%29.59 "HgN/A
9:50 PM59 °FPassing clouds.10 mph72%29.59 "HgN/A
9:20 PM59 °FPassing clouds.9 mph68%29.59 "HgN/A
8:50 PM61 °FScattered showers. Passing clouds.15 mph63%29.59 "HgN/A
8:20 PM61 °FScattered clouds.13 mph68%29.59 "HgN/A
7:50 PM63 °FScattered clouds.14 mph64%29.59 "HgN/A
7:20 PM63 °FPassing clouds.13 mph64%29.59 "HgN/A
6:50 PM64 °FPassing clouds.15 mph60%29.59 "HgN/A
6:20 PM64 °FScattered clouds.17 mph56%29.59 "HgN/A
5:50 PM64 °FScattered clouds.16 mph60%29.59 "HgN/A
5:20 PM66 °FScattered clouds.13 mph56%29.59 "HgN/A
4:50 PM64 °FScattered clouds.10 mph64%29.62 "HgN/A
4:20 PM64 °FBroken clouds.14 mph64%29.62 "HgN/A
3:50 PM64 °FBroken clouds.9 mph68%29.62 "HgN/A
3:20 PM63 °FPartly sunny.9 mph73%29.65 "HgN/A
2:50 PM63 °FPartly sunny.13 mph68%29.65 "HgN/A
2:20 PM63 °FPartly sunny.15 mph68%29.65 "HgN/A
1:20 PM63 °FOvercast.16 mph73%29.65 "HgN/A
12:50 PM63 °FPartly sunny.15 mph73%29.62 "HgN/A
12:20 PM63 °FPartly sunny.16 mph73%29.62 "HgN/A
11:50 AM63 °FBroken clouds.18 mph83%29.62 "HgN/A
11:20 AM61 °FBroken clouds.14 mph88%29.62 "HgN/A
10:50 AM61 °FLight rain. Broken clouds.20 mph88%29.59 "Hg6 mi
10:20 AM63 °FLight rain. Partly sunny.9 mph88%29.59 "Hg6 mi
9:50 AM63 °FLight rain. Overcast.9 mph88%29.59 "HgN/A
9:20 AM63 °FPartly sunny.9 mph88%29.59 "HgN/A
Weather by CustomWeather, © 2015

See weather overviewHow to use our weather pages